owner,sensor,date,latitude,longitude,vertical_datum,direction_of_sea_water_velocity,sea_water_speed,upward_sea_water_velocity,qcFlag 
TABS,ioos:station:wmo:42047:1,2007-12-01T00:00:00Z,27.8966,-93.5973,2.0,8.427159774,1.910628169,-99999.0,'11133222,11111222,99999999' 
TABS,ioos:station:wmo:42047:1,2007-12-01T00:30:00Z,27.8966,-93.5973,2.0,53.24079779,1.036001931,-99999.0,'11133222,11111222,99999999' 
TABS,ioos:station:wmo:42047:1,2007-12-01T01:00:00Z,27.8966,-93.5973,2.0,346.8974512,2.382015953,-99999.0,'11133222,11111222,99999999' 
TABS,ioos:station:wmo:42047:1,2007-12-01T01:30:00Z,27.8966,-93.5973,2.0,268.5776387,2.820868661,-99999.0,'11133222,11111222,99999999' 
TABS,ioos:station:wmo:42047:1,2007-12-01T02:00:00Z,27.8966,-93.5973,2.0,174.9615622,3.985398349,-99999.0,'11133222,11111222,99999999' 
TABS,ioos:station:wmo:42047:1,2007-12-01T02:30:00Z,27.8966,-93.5973,2.0,204.8540234,4.044613702,-99999.0,'11133222,11111222,99999999' 
TABS,ioos:station:wmo:42047:1,2007-12-01T03:00:00Z,27.8966,-93.5973,2.0,218.1262424,4.195008939,-99999.0,'11133222,11111222,99999999' 
TABS,ioos:station:wmo:42047:1,2007-12-01T03:30:00Z,27.8966,-93.5973,2.0,226.6387876,9.14663326,-99999.0,'11133222,11111222,99999999' 
TABS,ioos:station:wmo:42047:1,2007-12-01T04:00:00Z,27.8966,-93.5973,2.0,231.6938978,7.582380893,-99999.0,'11133222,11111222,99999999' 
TABS,ioos:station:wmo:42047:1,2007-12-01T04:30:00Z,27.8966,-93.5973,2.0,225.9344953,6.06778378,-99999.0,'11133222,11111222,99999999' 
TABS,ioos:station:wmo:42047:1,2007-12-01T05:00:00Z,27.8966,-93.5973,2.0,221.8342467,7.811305909,-99999.0,'11133222,11111222,99999999' 
TABS,ioos:station:wmo:42047:1,2007-12-01T05:30:00Z,27.8966,-93.5973,2.0,220.0004644,7.140658233,-99999.0,'11133222,11111222,99999999' 
TABS,ioos:station:wmo:42047:1,2007-12-01T06:00:00Z,27.8966,-93.5973,2.0,234.2372166,6.519217744,-99999.0,'11133222,11111222,99999999' 
TABS,ioos:station:wmo:42047:1,2007-12-01T06:30:00Z,27.8966,-93.5973,2.0,198.4915926,3.184415174,-99999.0,'11133222,11111222,99999999' 
TABS,ioos:station:wmo:42047:1,2007-12-01T07:00:00Z,27.8966,-93.5973,2.0,240.9450429,6.692159592,-99999.0,'11133222,11111222,99999999' 
TABS,ioos:station:wmo:42047:1,2007-12-01T07:30:00Z,27.8966,-93.5973,2.0,268.933028,3.760651539,-99999.0,'11133222,11111222,99999999' 
TABS,ioos:station:wmo:42047:1,2007-12-01T08:00:00Z,27.8966,-93.5973,2.0,237.8544497,3.909283822,-99999.0,'11133222,11111222,99999999' 
TABS,ioos:station:wmo:42047:1,2007-12-01T08:30:00Z,27.8966,-93.5973,2.0,269.8030253,5.830034305,-99999.0,'11133222,11111222,99999999' 
TABS,ioos:station:wmo:42047:1,2007-12-01T09:00:00Z,27.8966,-93.5973,2.0,231.2689947,2.525331661,-99999.0,'11133222,11111222,99999999' 
TABS,ioos:station:wmo:42047:1,2007-12-01T09:30:00Z,27.8966,-93.5973,2.0,257.5214711,4.905884222,-99999.0,'11133222,11111222,99999999' 
TABS,ioos:station:wmo:42047:1,2007-12-01T10:00:00Z,27.8966,-93.5973,2.0,304.4555815,3.322950496,-99999.0,'11133222,11111222,99999999' 
TABS,ioos:station:wmo:42047:1,2007-12-01T10:30:00Z,27.8966,-93.5973,2.0,323.8942957,3.750333319,-99999.0,'11133222,11111222,99999999' 
TABS,ioos:station:wmo:42047:1,2007-12-01T11:00:00Z,27.8966,-93.5973,2.0,309.2445975,5.358600564,-99999.0,'11133222,11111222,99999999' 
TABS,ioos:station:wmo:42047:1,2007-12-01T11:30:00Z,27.8966,-93.5973,2.0,310.7898271,4.622812996,-99999.0,'11133222,11111222,99999999' 
TABS,ioos:station:wmo:42047:1,2007-12-01T12:00:00Z,27.8966,-93.5973,2.0,39.81888415,5.559361474,-99999.0,'11133222,11111222,99999999' 
TABS,ioos:station:wmo:42047:1,2007-12-01T12:30:00Z,27.8966,-93.5973,2.0,37.42246215,7.882366396,-99999.0,'11133222,11111222,99999999' 
TABS,ioos:station:wmo:42047:1,2007-12-01T13:00:00Z,27.8966,-93.5973,2.0,63.21293591,4.615278973,-99999.0,'11133222,11111222,99999999' 
TABS,ioos:station:wmo:42047:1,2007-12-01T13:30:00Z,27.8966,-93.5973,2.0,65.74528873,6.767370243,-99999.0,'11133222,11111222,99999999' 
TABS,ioos:station:wmo:42047:1,2007-12-01T14:00:00Z,27.8966,-93.5973,2.0,72.04271999,8.725027221,-99999.0,'11133222,11111222,99999999' 
TABS,ioos:station:wmo:42047:1,2007-12-01T14:30:00Z,27.8966,-93.5973,2.0,95.73590382,4.502543725,-99999.0,'11133222,11111222,99999999' 
TABS,ioos:station:wmo:42047:1,2007-12-01T15:00:00Z,27.8966,-93.5973,2.0,140.1676127,8.243015225,-99999.0,'11133222,11111222,99999999' 
TABS,ioos:station:wmo:42047:1,2007-12-01T15:30:00Z,27.8966,-93.5973,2.0,121.199338,6.254606303,-99999.0,'11133222,11111222,99999999' 
TABS,ioos:station:wmo:42047:1,2007-12-01T16:00:00Z,27.8966,-93.5973,2.0,137.7432128,6.796013537,-99999.0,'11133222,11111222,99999999' 
TABS,ioos:station:wmo:42047:1,2007-12-01T16:30:00Z,27.8966,-93.5973,2.0,124.3158526,8.88682733,-99999.0,'11133222,11111222,99999999' 
TABS,ioos:station:wmo:42047:1,2007-12-01T17:00:00Z,27.8966,-93.5973,2.0,131.6834413,13.32299141,-99999.0,'11111222,11111222,99999999' 
TABS,ioos:station:wmo:42047:1,2007-12-01T17:30:00Z,27.8966,-93.5973,2.0,130.1464331,10.11253183,-99999.0,'11111222,11111222,99999999' 
TABS,ioos:station:wmo:42047:1,2007-12-01T18:00:00Z,27.8966,-93.5973,2.0,125.9856196,10.10920373,-99999.0,'11111222,11111222,99999999' 
TABS,ioos:station:wmo:42047:1,2007-12-01T18:30:00Z,27.8966,-93.5973,2.0,136.7173905,9.437044029,-99999.0,'11133222,11111222,99999999' 
TABS,ioos:station:wmo:42047:1,2007-12-01T19:00:00Z,27.8966,-93.5973,2.0,100.372943,8.27524622,-99999.0,'11133222,11111222,99999999' 
TABS,ioos:station:wmo:42047:1,2007-12-01T19:30:00Z,27.8966,-93.5973,2.0,117.8363547,6.852999343,-99999.0,'11133222,11111222,99999999' 
TABS,ioos:station:wmo:42047:1,2007-12-01T20:00:00Z,27.8966,-93.5973,2.0,134.405739,4.77322742,-99999.0,'11133222,11111222,99999999' 
TABS,ioos:station:wmo:42047:1,2007-12-01T20:30:00Z,27.8966,-93.5973,2.0,103.5034685,8.607961431,-99999.0,'11133222,11111222,99999999' 
TABS,ioos:station:wmo:42047:1,2007-12-01T21:00:00Z,27.8966,-93.5973,2.0,107.7419372,8.105510471,-99999.0,'11133222,11111222,99999999' 
TABS,ioos:station:wmo:42047:1,2007-12-01T21:30:00Z,27.8966,-93.5973,2.0,76.43526345,6.779100235,-99999.0,'11133222,11111222,99999999' 
TABS,ioos:station:wmo:42047:1,2007-12-01T22:00:00Z,27.8966,-93.5973,2.0,103.4078528,8.625085507,-99999.0,'11133222,11111222,99999999' 
TABS,ioos:station:wmo:42047:1,2007-12-01T22:30:00Z,27.8966,-93.5973,2.0,104.8264453,8.089332482,-99999.0,'11133222,11111222,99999999' 
TABS,ioos:station:wmo:42047:1,2007-12-01T23:00:00Z,27.8966,-93.5973,2.0,82.06782829,8.188345376,-99999.0,'11133222,11111222,99999999' 
TABS,ioos:station:wmo:42047:1,2007-12-01T23:30:00Z,27.8966,-93.5973,2.0,93.03852668,5.848221952,-99999.0,'11133222,11111222,99999999' 
TABS,ioos:station:wmo:42047:1,2007-12-02T00:00:00Z,27.8966,-93.5973,2.0,80.19038525,7.864992053,-99999.0,'11133222,11111222,99999999' 
TABS,ioos:station:wmo:42047:1,2007-12-02T00:30:00Z,27.8966,-93.5973,2.0,83.85098164,7.281895358,-99999.0,'11133222,11111222,99999999' 
TABS,ioos:station:wmo:42047:1,2007-12-02T01:00:00Z,27.8966,-93.5973,2.0,60.22449965,4.631457654,-99999.0,'11133222,11111222,99999999' 
TABS,ioos:station:wmo:42047:1,2007-12-02T01:30:00Z,27.8966,-93.5973,2.0,107.2607257,2.932047066,-99999.0,'11133222,11111222,99999999' 
TABS,ioos:station:wmo:42047:1,2007-12-02T02:00:00Z,27.8966,-93.5973,2.0,44.23108235,6.32210408,-99999.0,'11133222,11111222,99999999' 
TABS,ioos:station:wmo:42047:1,2007-12-02T02:30:00Z,27.8966,-93.5973,2.0,98.33995656,3.860828927,-99999.0,'11133222,11111222,99999999' 
TABS,ioos:station:wmo:42047:1,2007-12-02T03:00:00Z,27.8966,-93.5973,2.0,57.1617421,6.34369766,-99999.0,'11133222,11111222,99999999' 
TABS,ioos:station:wmo:42047:1,2007-12-02T03:30:00Z,27.8966,-93.5973,2.0,103.240489,6.461772203,-99999.0,'11133222,11111222,99999999' 
TABS,ioos:station:wmo:42047:1,2007-12-02T04:00:00Z,27.8966,-93.5973,2.0,78.28531452,6.107208855,-99999.0,'11133222,11111222,99999999' 
TABS,ioos:station:wmo:42047:1,2007-12-02T04:30:00Z,27.8966,-93.5973,2.0,106.8094172,7.46914319,-99999.0,'11133222,11111222,99999999' 
TABS,ioos:station:wmo:42047:1,2007-12-02T05:00:00Z,27.8966,-93.5973,2.0,119.5461452,8.942958124,-99999.0,'11133222,11111222,99999999' 
TABS,ioos:station:wmo:42047:1,2007-12-02T05:30:00Z,27.8966,-93.5973,2.0,111.8157363,7.399959459,-99999.0,'11133222,11111222,99999999' 
TABS,ioos:station:wmo:42047:1,2007-12-02T06:00:00Z,27.8966,-93.5973,2.0,111.5271563,8.148404752,-99999.0,'11133222,11111222,99999999' 
TABS,ioos:station:wmo:42047:1,2007-12-02T06:30:00Z,27.8966,-93.5973,2.0,127.6475326,7.956732998,-99999.0,'11133222,11111222,99999999' 
TABS,ioos:station:wmo:42047:1,2007-12-02T07:00:00Z,27.8966,-93.5973,2.0,105.8927938,7.486153886,-99999.0,'11133222,11111222,99999999' 
TABS,ioos:station:wmo:42047:1,2007-12-02T07:30:00Z,27.8966,-93.5973,2.0,120.7452774,5.398814685,-99999.0,'11133222,11111222,99999999' 
TABS,ioos:station:wmo:42047:1,2007-12-02T08:00:00Z,27.8966,-93.5973,2.0,99.65596902,9.240919868,-99999.0,'11133222,11111222,99999999' 
TABS,ioos:station:wmo:42047:1,2007-12-02T08:30:00Z,27.8966,-93.5973,2.0,111.8400369,8.252302709,-99999.0,'11133222,11111222,99999999' 
TABS,ioos:station:wmo:42047:1,2007-12-02T09:00:00Z,27.8966,-93.5973,2.0,85.1714207,8.791200146,-99999.0,'11133222,11111222,99999999' 
TABS,ioos:station:wmo:42047:1,2007-12-02T09:30:00Z,27.8966,-93.5973,2.0,89.48713708,7.820313293,-99999.0,'11133222,11111222,99999999' 
TABS,ioos:station:wmo:42047:1,2007-12-02T10:00:00Z,27.8966,-93.5973,2.0,60.27031383,4.69843591,-99999.0,'11133222,11111222,99999999' 
TABS,ioos:station:wmo:42047:1,2007-12-02T10:30:00Z,27.8966,-93.5973,2.0,52.6720368,4.502143934,-99999.0,'11133222,11111222,99999999' 
TABS,ioos:station:wmo:42047:1,2007-12-02T11:00:00Z,27.8966,-93.5973,2.0,72.01581427,6.833893473,-99999.0,'11133222,11111222,99999999' 
TABS,ioos:station:wmo:42047:1,2007-12-02T11:30:00Z,27.8966,-93.5973,2.0,64.96628108,8.200353651,-99999.0,'11133222,11111222,99999999' 
TABS,ioos:station:wmo:42047:1,2007-12-02T12:00:00Z,27.8966,-93.5973,2.0,63.11252479,11.9184311,-99999.0,'11111222,11111222,99999999' 
TABS,ioos:station:wmo:42047:1,2007-12-02T12:30:00Z,27.8966,-93.5973,2.0,56.58200753,9.932018929,-99999.0,'11133222,11111222,99999999' 
TABS,ioos:station:wmo:42047:1,2007-12-02T13:00:00Z,27.8966,-93.5973,2.0,72.06207007,12.76027037,-99999.0,'11111222,11111222,99999999' 
TABS,ioos:station:wmo:42047:1,2007-12-02T13:30:00Z,27.8966,-93.5973,2.0,63.10896578,8.644778771,-99999.0,'11133222,11111222,99999999' 
TABS,ioos:station:wmo:42047:1,2007-12-02T14:00:00Z,27.8966,-93.5973,2.0,81.95309623,10.71550745,-99999.0,'11111222,11111222,99999999' 
TABS,ioos:station:wmo:42047:1,2007-12-02T14:30:00Z,27.8966,-93.5973,2.0,77.26442566,14.42488475,-99999.0,'11111222,11111222,99999999' 
TABS,ioos:station:wmo:42047:1,2007-12-02T15:00:00Z,27.8966,-93.5973,2.0,86.90103194,15.72299272,-99999.0,'11111222,11111222,99999999' 
TABS,ioos:station:wmo:42047:1,2007-12-02T15:30:00Z,27.8966,-93.5973,2.0,79.47655821,15.00233648,-99999.0,'11111222,11111222,99999999' 
TABS,ioos:station:wmo:42047:1,2007-12-02T16:00:00Z,27.8966,-93.5973,2.0,92.43739323,16.22467873,-99999.0,'11111222,11111222,99999999' 
TABS,ioos:station:wmo:42047:1,2007-12-02T16:30:00Z,27.8966,-93.5973,2.0,98.14032751,15.81939316,-99999.0,'11111222,11111222,99999999' 
TABS,ioos:station:wmo:42047:1,2007-12-02T17:00:00Z,27.8966,-93.5973,2.0,99.60786797,16.17691256,-99999.0,'11111222,11111222,99999999' 
TABS,ioos:station:wmo:42047:1,2007-12-02T17:30:00Z,27.8966,-93.5973,2.0,95.09376441,17.00716614,-99999.0,'11111222,11111222,99999999' 
TABS,ioos:station:wmo:42047:1,2007-12-02T18:00:00Z,27.8966,-93.5973,2.0,103.0410078,14.80175665,-99999.0,'11111222,11111222,99999999' 
TABS,ioos:station:wmo:42047:1,2007-12-02T18:30:00Z,27.8966,-93.5973,2.0,100.0059814,16.80562108,-99999.0,'11111222,11111222,99999999' 
TABS,ioos:station:wmo:42047:1,2007-12-02T19:00:00Z,27.8966,-93.5973,2.0,105.7399027,17.62072643,-99999.0,'11111222,11111222,99999999' 
TABS,ioos:station:wmo:42047:1,2007-12-02T19:30:00Z,27.8966,-93.5973,2.0,104.3694896,19.18004171,-99999.0,'11111222,11111222,99999999' 
TABS,ioos:station:wmo:42047:1,2007-12-02T20:00:00Z,27.8966,-93.5973,2.0,108.445291,17.44628614,-99999.0,'11111222,11111222,99999999' 
TABS,ioos:station:wmo:42047:1,2007-12-02T20:30:00Z,27.8966,-93.5973,2.0,108.7555869,20.3400885,-99999.0,'11111222,11111222,99999999' 
TABS,ioos:station:wmo:42047:1,2007-12-02T21:00:00Z,27.8966,-93.5973,2.0,109.6230895,21.34996487,-99999.0,'11111222,11111222,99999999' 
TABS,ioos:station:wmo:42047:1,2007-12-02T21:30:00Z,27.8966,-93.5973,2.0,116.0422745,22.54944789,-99999.0,'11111222,11111222,99999999' 
TABS,ioos:station:wmo:42047:1,2007-12-02T22:00:00Z,27.8966,-93.5973,2.0,113.7753186,22.69615386,-99999.0,'11111222,11111222,99999999' 
TABS,ioos:station:wmo:42047:1,2007-12-02T22:30:00Z,27.8966,-93.5973,2.0,115.1855539,23.5928824,-99999.0,'11111222,11111222,99999999' 
TABS,ioos:station:wmo:42047:1,2007-12-02T23:00:00Z,27.8966,-93.5973,2.0,120.6228962,23.06696772,-99999.0,'11111222,11111222,99999999' 
TABS,ioos:station:wmo:42047:1,2007-12-02T23:30:00Z,27.8966,-93.5973,2.0,122.0848678,23.66447549,-99999.0,'11111222,11111222,99999999' 
TABS,ioos:station:wmo:42047:1,2007-12-03T00:00:00Z,27.8966,-93.5973,2.0,127.1825737,23.0823439,-99999.0,'11111222,11111222,99999999' 
TABS,ioos:station:wmo:42047:1,2007-12-03T00:30:00Z,27.8966,-93.5973,2.0,133.341218,21.98609106,-99999.0,'11111222,11111222,99999999' 
TABS,ioos:station:wmo:42047:1,2007-12-03T01:00:00Z,27.8966,-93.5973,2.0,134.7367276,21.55284204,-99999.0,'11111222,11111222,99999999' 
TABS,ioos:station:wmo:42047:1,2007-12-03T01:30:00Z,27.8966,-93.5973,2.0,134.6829096,20.44984108,-99999.0,'11111222,11111222,99999999' 
TABS,ioos:station:wmo:42047:1,2007-12-03T02:00:00Z,27.8966,-93.5973,2.0,135.4403138,20.23799397,-99999.0,'11111222,11111222,99999999' 
TABS,ioos:station:wmo:42047:1,2007-12-03T02:30:00Z,27.8966,-93.5973,2.0,143.0436462,19.9100226,-99999.0,'11111222,11111222,99999999' 
TABS,ioos:station:wmo:42047:1,2007-12-03T03:00:00Z,27.8966,-93.5973,2.0,145.6887851,16.88883951,-99999.0,'11111222,11111222,99999999' 
TABS,ioos:station:wmo:42047:1,2007-12-03T03:30:00Z,27.8966,-93.5973,2.0,160.8015947,15.90450565,-99999.0,'11111222,11111222,99999999' 
TABS,ioos:station:wmo:42047:1,2007-12-03T04:00:00Z,27.8966,-93.5973,2.0,165.3261412,14.60639928,-99999.0,'11111222,11111222,99999999' 
TABS,ioos:station:wmo:42047:1,2007-12-03T04:30:00Z,27.8966,-93.5973,2.0,169.8551121,14.08012784,-99999.0,'11111222,11111222,99999999' 
TABS,ioos:station:wmo:42047:1,2007-12-03T05:00:00Z,27.8966,-93.5973,2.0,180.6003508,9.540524095,-99999.0,'11133222,11111222,99999999' 
TABS,ioos:station:wmo:42047:1,2007-12-03T05:30:00Z,27.8966,-93.5973,2.0,181.5541643,9.953662642,-99999.0,'11133222,11111222,99999999' 
TABS,ioos:station:wmo:42047:1,2007-12-03T06:00:00Z,27.8966,-93.5973,2.0,184.4389762,10.8525573,-99999.0,'11111222,11111222,99999999' 
TABS,ioos:station:wmo:42047:1,2007-12-03T06:30:00Z,27.8966,-93.5973,2.0,185.693894,10.38122343,-99999.0,'11111222,11111222,99999999' 
TABS,ioos:station:wmo:42047:1,2007-12-03T07:00:00Z,27.8966,-93.5973,2.0,190.1101017,8.430919286,-99999.0,'11133222,11111222,99999999' 
TABS,ioos:station:wmo:42047:1,2007-12-03T07:30:00Z,27.8966,-93.5973,2.0,192.3517503,9.489668066,-99999.0,'11133222,11111222,99999999' 
TABS,ioos:station:wmo:42047:1,2007-12-03T08:00:00Z,27.8966,-93.5973,2.0,191.418882,8.232970302,-99999.0,'11133222,11111222,99999999' 
TABS,ioos:station:wmo:42047:1,2007-12-03T08:30:00Z,27.8966,-93.5973,2.0,221.7152582,5.800732712,-99999.0,'11133222,11111222,99999999' 
TABS,ioos:station:wmo:42047:1,2007-12-03T09:00:00Z,27.8966,-93.5973,2.0,229.3904634,7.850713343,-99999.0,'11133222,11111222,99999999' 
TABS,ioos:station:wmo:42047:1,2007-12-03T09:30:00Z,27.8966,-93.5973,2.0,254.3722319,2.969781137,-99999.0,'11133222,11111222,99999999' 
TABS,ioos:station:wmo:42047:1,2007-12-03T10:00:00Z,27.8966,-93.5973,2.0,213.7075224,8.955635098,-99999.0,'11133222,11111222,99999999' 
TABS,ioos:station:wmo:42047:1,2007-12-03T10:30:00Z,27.8966,-93.5973,2.0,196.3266049,9.284406282,-99999.0,'11133222,11111222,99999999' 
TABS,ioos:station:wmo:42047:1,2007-12-03T11:00:00Z,27.8966,-93.5973,2.0,205.5405517,15.26136626,-99999.0,'11111222,11111222,99999999' 
TABS,ioos:station:wmo:42047:1,2007-12-03T11:30:00Z,27.8966,-93.5973,2.0,209.6478454,13.22088121,-99999.0,'11111222,11111222,99999999' 
TABS,ioos:station:wmo:42047:1,2007-12-03T12:00:00Z,27.8966,-93.5973,2.0,203.7263273,12.82393075,-99999.0,'11111222,11111222,99999999' 
TABS,ioos:station:wmo:42047:1,2007-12-03T12:30:00Z,27.8966,-93.5973,2.0,193.3242896,10.93434955,-99999.0,'11111222,11111222,99999999' 
TABS,ioos:station:wmo:42047:1,2007-12-03T13:00:00Z,27.8966,-93.5973,2.0,181.4963624,11.10378764,-99999.0,'11111222,11111222,99999999' 
TABS,ioos:station:wmo:42047:1,2007-12-03T13:30:00Z,27.8966,-93.5973,2.0,233.564774,8.166235363,-99999.0,'11133222,11111222,99999999' 
TABS,ioos:station:wmo:42047:1,2007-12-03T14:00:00Z,27.8966,-93.5973,2.0,219.3460827,9.905251133,-99999.0,'11133222,11111222,99999999' 
TABS,ioos:station:wmo:42047:1,2007-12-03T14:30:00Z,27.8966,-93.5973,2.0,211.1336342,8.084478957,-99999.0,'11133222,11111222,99999999' 
TABS,ioos:station:wmo:42047:1,2007-12-03T15:00:00Z,27.8966,-93.5973,2.0,206.763721,7.727897515,-99999.0,'11133222,11111222,99999999' 
TABS,ioos:station:wmo:42047:1,2007-12-03T15:30:00Z,27.8966,-93.5973,2.0,218.6595074,7.5556866,-99999.0,'11133222,11111222,99999999' 
TABS,ioos:station:wmo:42047:1,2007-12-03T16:00:00Z,27.8966,-93.5973,2.0,231.0413295,7.793176503,-99999.0,'11133222,11111222,99999999' 
TABS,ioos:station:wmo:42047:1,2007-12-03T16:30:00Z,27.8966,-93.5973,2.0,198.2740912,9.025175899,-99999.0,'11133222,11111222,99999999' 
TABS,ioos:station:wmo:42047:1,2007-12-03T17:00:00Z,27.8966,-93.5973,2.0,208.4764236,13.67445794,-99999.0,'11111222,11111222,99999999' 
TABS,ioos:station:wmo:42047:1,2007-12-03T17:30:00Z,27.8966,-93.5973,2.0,197.8763596,8.437357406,-99999.0,'11133222,11111222,99999999' 
TABS,ioos:station:wmo:42047:1,2007-12-03T18:00:00Z,27.8966,-93.5973,2.0,174.9684611,12.08657106,-99999.0,'11111222,11111222,99999999' 
TABS,ioos:station:wmo:42047:1,2007-12-03T18:30:00Z,27.8966,-93.5973,2.0,191.5158377,9.266547361,-99999.0,'11133222,11111222,99999999' 
TABS,ioos:station:wmo:42047:1,2007-12-03T19:00:00Z,27.8966,-93.5973,2.0,174.1408645,9.992196956,-99999.0,'11133222,11111222,99999999' 
TABS,ioos:station:wmo:42047:1,2007-12-03T19:30:00Z,27.8966,-93.5973,2.0,178.2469654,10.13474223,-99999.0,'11111222,11111222,99999999' 
TABS,ioos:station:wmo:42047:1,2007-12-03T20:00:00Z,27.8966,-93.5973,2.0,181.2805764,9.842459042,-99999.0,'11133222,11111222,99999999' 
TABS,ioos:station:wmo:42047:1,2007-12-03T20:30:00Z,27.8966,-93.5973,2.0,190.8721843,11.55746079,-99999.0,'11111222,11111222,99999999' 
TABS,ioos:station:wmo:42047:1,2007-12-03T21:00:00Z,27.8966,-93.5973,2.0,193.5923344,11.27581926,-99999.0,'11111222,11111222,99999999' 
TABS,ioos:station:wmo:42047:1,2007-12-03T21:30:00Z,27.8966,-93.5973,2.0,215.7974724,12.29215197,-99999.0,'11111222,11111222,99999999' 
TABS,ioos:station:wmo:42047:1,2007-12-03T22:00:00Z,27.8966,-93.5973,2.0,194.1336493,11.38463877,-99999.0,'11111222,11111222,99999999' 
TABS,ioos:station:wmo:42047:1,2007-12-03T22:30:00Z,27.8966,-93.5973,2.0,207.4002809,10.73426756,-99999.0,'11111222,11111222,99999999' 
TABS,ioos:station:wmo:42047:1,2007-12-03T23:00:00Z,27.8966,-93.5973,2.0,190.2382556,8.495275157,-99999.0,'11133222,11111222,99999999' 
TABS,ioos:station:wmo:42047:1,2007-12-03T23:30:00Z,27.8966,-93.5973,2.0,229.1576428,13.1656257,-99999.0,'11111222,11111222,99999999' 
TABS,ioos:station:wmo:42047:1,2007-12-04T00:00:00Z,27.8966,-93.5973,2.0,200.6770539,10.50680732,-99999.0,'11111222,11111222,99999999' 
TABS,ioos:station:wmo:42047:1,2007-12-04T00:30:00Z,27.8966,-93.5973,2.0,187.2548586,5.463744137,-99999.0,'11133222,11111222,99999999' 
TABS,ioos:station:wmo:42047:1,2007-12-04T01:00:00Z,27.8966,-93.5973,2.0,213.0984136,11.55502055,-99999.0,'11111222,11111222,99999999' 
TABS,ioos:station:wmo:42047:1,2007-12-04T01:30:00Z,27.8966,-93.5973,2.0,212.6131441,13.28464151,-99999.0,'11111222,11111222,99999999' 
TABS,ioos:station:wmo:42047:1,2007-12-04T02:00:00Z,27.8966,-93.5973,2.0,210.4785378,10.94200165,-99999.0,'11111222,11111222,99999999' 
TABS,ioos:station:wmo:42047:1,2007-12-04T02:30:00Z,27.8966,-93.5973,2.0,218.8903818,11.62723097,-99999.0,'11111222,11111222,99999999' 
TABS,ioos:station:wmo:42047:1,2007-12-04T03:00:00Z,27.8966,-93.5973,2.0,207.0351389,11.44010927,-99999.0,'11111222,11111222,99999999' 
TABS,ioos:station:wmo:42047:1,2007-12-04T03:30:00Z,27.8966,-93.5973,2.0,255.9006818,11.0838847,-99999.0,'11111222,11111222,99999999' 
TABS,ioos:station:wmo:42047:1,2007-12-04T04:00:00Z,27.8966,-93.5973,2.0,236.2053597,15.24596012,-99999.0,'11111222,11111222,99999999' 
TABS,ioos:station:wmo:42047:1,2007-12-04T04:30:00Z,27.8966,-93.5973,2.0,238.0787775,7.186793444,-99999.0,'11133222,11111222,99999999' 
TABS,ioos:station:wmo:42047:1,2007-12-04T05:00:00Z,27.8966,-93.5973,2.0,235.0981226,11.41273412,-99999.0,'11111222,11111222,99999999' 
TABS,ioos:station:wmo:42047:1,2007-12-04T05:30:00Z,27.8966,-93.5973,2.0,261.0956379,6.073186972,-99999.0,'11133222,11111222,99999999' 
TABS,ioos:station:wmo:42047:1,2007-12-04T06:00:00Z,27.8966,-93.5973,2.0,242.5762925,5.970971445,-99999.0,'11133222,11111222,99999999' 
TABS,ioos:station:wmo:42047:1,2007-12-04T06:30:00Z,27.8966,-93.5973,2.0,244.0838047,3.157530681,-99999.0,'11133222,11111222,99999999' 
TABS,ioos:station:wmo:42047:1,2007-12-04T07:00:00Z,27.8966,-93.5973,2.0,234.564808,5.829828471,-99999.0,'11133222,11111222,99999999' 
TABS,ioos:station:wmo:42047:1,2007-12-04T07:30:00Z,27.8966,-93.5973,2.0,241.3121675,7.124528055,-99999.0,'11133222,11111222,99999999' 
TABS,ioos:station:wmo:42047:1,2007-12-04T08:00:00Z,27.8966,-93.5973,2.0,249.6345944,8.074713617,-99999.0,'11133222,11111222,99999999' 
TABS,ioos:station:wmo:42047:1,2007-12-04T08:30:00Z,27.8966,-93.5973,2.0,262.6182964,4.436766841,-99999.0,'11133222,11111222,99999999' 
TABS,ioos:station:wmo:42047:1,2007-12-04T09:00:00Z,27.8966,-93.5973,2.0,190.9935364,3.198702862,-99999.0,'11133222,11111222,99999999' 
TABS,ioos:station:wmo:42047:1,2007-12-04T09:30:00Z,27.8966,-93.5973,2.0,244.2626537,4.951171579,-99999.0,'11133222,11111222,99999999' 
TABS,ioos:station:wmo:42047:1,2007-12-04T10:00:00Z,27.8966,-93.5973,2.0,252.8968901,8.976970536,-99999.0,'11133222,11111222,99999999' 
TABS,ioos:station:wmo:42047:1,2007-12-04T10:30:00Z,27.8966,-93.5973,2.0,258.7610843,4.720519039,-99999.0,'11133222,11111222,99999999' 
TABS,ioos:station:wmo:42047:1,2007-12-04T11:00:00Z,27.8966,-93.5973,2.0,298.8241602,3.857978745,-99999.0,'11133222,11111222,99999999' 
TABS,ioos:station:wmo:42047:1,2007-12-04T11:30:00Z,27.8966,-93.5973,2.0,293.9221826,5.721477082,-99999.0,'11133222,11111222,99999999' 
TABS,ioos:station:wmo:42047:1,2007-12-04T12:00:00Z,27.8966,-93.5973,2.0,276.1522499,5.039017761,-99999.0,'11133222,11111222,99999999' 
TABS,ioos:station:wmo:42047:1,2007-12-04T12:30:00Z,27.8966,-93.5973,2.0,281.1353255,3.210436107,-99999.0,'11133222,11111222,99999999' 
TABS,ioos:station:wmo:42047:1,2007-12-04T13:00:00Z,27.8966,-93.5973,2.0,349.4542011,3.824604555,-99999.0,'11133222,11111222,99999999' 
TABS,ioos:station:wmo:42047:1,2007-12-04T13:30:00Z,27.8966,-93.5973,2.0,300.1653582,4.059766003,-99999.0,'11133222,11111222,99999999' 
TABS,ioos:station:wmo:42047:1,2007-12-04T14:00:00Z,27.8966,-93.5973,2.0,327.6956507,2.638370709,-99999.0,'11133222,11111222,99999999' 
TABS,ioos:station:wmo:42047:1,2007-12-04T14:30:00Z,27.8966,-93.5973,2.0,346.414251,1.23454445,-99999.0,'11133222,11111222,99999999' 
TABS,ioos:station:wmo:42047:1,2007-12-04T15:00:00Z,27.8966,-93.5973,2.0,328.0166379,2.794154613,-99999.0,'11133222,11111222,99999999' 
TABS,ioos:station:wmo:42047:1,2007-12-04T15:30:00Z,27.8966,-93.5973,2.0,15.61956607,0.965660396,-99999.0,'11133222,11111222,99999999' 
TABS,ioos:station:wmo:42047:1,2007-12-04T16:00:00Z,27.8966,-93.5973,2.0,48.45671632,1.055509356,-99999.0,'11133222,11111222,99999999' 